Weather in Kailua-Kona

United States     19°38′24″N   155°59′44″W
temp.,
°C
wind,
m/s
gust,
m/s
humid.,
%
clouds,
%
prec.,
mm/h
press.,
hPa
HPBL,
m
24 may, tue
tue2423:00+23s44727 0.0 1019427
02:00+22sw228018 0.0 1018425
05:00+21n228321 0.3 1018350
08:00+23nnw32741 0.4 1018530
11:00+25wnw32603 0.0 1018910
14:00+24wsw32654 0.1 1017793
17:00+24ssw64715 0.0 1015810
20:00+23ssw547734 0.1 1017634
25 may, wed
wed2523:00+22sw337965 0.3 1017605
02:00+21wnw228145 1.1 1016375
05:00+21wnw228246 1.1 1015378
08:00+22nw11715 1.4 1016606
11:00+24wnw316643 0.1 1016800
14:00+23sw326860 0.1 1015730
17:00+23s547022 0.0 1014794
20:00+22ssw547520 0.1 1016569
26 may, thu
thu2623:00+22sw227270 0.1 1016707
02:00+21w337894 0.3 1015611
05:00+21nw117519 0.7 1015352
08:00+22e01587 0.9 1016703
11:00+23wsw326424 0.0 1016882
14:00+23sw447095 0.1 1015811
17:00+22ssw447342 0.1 1015746
20:00+22ssw337654 0.1 1016563
27 may, fri
fri2723:00+21sw2278100 0.1 1017522
02:00+21wnw117999 0.5 1015379
05:00+21ene117693 0.1 1015245
08:00+22nne116395 0.1 1016512
11:00+24sw3365100 0.0 1016818
14:00+23wsw2172100 0.1 1016619
17:00+22sw3275100 0.1 1016600
20:00+22wnw2177100 0.2 1017433
28 may, sat
sat2823:00+22sw2280100 0.1 1018431
02:00+21sw1182100 0.2 1016374
05:00+21s1283100 0.3 1016255
08:00+22se1276100 0.4 1018299
11:00+24sw3364100 0.0 1017813
14:00+24sw4473100 0.2 1016773
17:00+22wsw3381100 0.6 1016576
20:00+22wnw3383100 1.4 1017418